This is the latest recevied weather packets stored in our database for station/object KG5WBN. If no packets are shown the sender has not sent any weather packets the latest 10 day(s).
| Time | Temp. | Humidity | Pressure | Rain* | Wind** | Luminosity | Snow |
|---|---|---|---|---|---|---|---|
| 1787780996 | 35° C | 42% | 1012.5 hPa | 0 mm | - | 274 W/m² | - |
| 1787780691 | 35° C | 42% | 1012.5 hPa | 0 mm | - | 241 W/m² | - |
| 1787780385 | 35.56° C | 42% | 1012.9 hPa | 0 mm | - | 95 W/m² | - |
| 1787780082 | 35° C | 42% | 1012.9 hPa | 0 mm | - | 280 W/m² | - |
| 1787779777 | 36.11° C | 42% | 1012.9 hPa | 0 mm | - | 105 W/m² | - |
| 1787779476 | 35.56° C | 42% | 1013.2 hPa | 0 mm | - | 309 W/m² | - |
| 1787779176 | 36.11° C | 42% | 1012.9 hPa | 0 mm | - | 285 W/m² | - |
| 1787778871 | 35.56° C | 42% | 1013.2 hPa | 0 mm | - | 305 W/m² | - |
| 1787778567 | 35.56° C | 42% | 1012.9 hPa | 0 mm | - | 126 W/m² | - |
| 1787778263 | 36.11° C | 42% | 1013.2 hPa | 0 mm | - | 326 W/m² | - |
| 1787777962 | 36.11° C | 42% | 1013.2 hPa | 0 mm | - | 300 W/m² | - |
| 1787777679 | 36.67° C | 42% | 1013.5 hPa | 0 mm | - | 325 W/m² | - |
| 1787777354 | 35.56° C | 42% | 1013.5 hPa | 0 mm | - | 330 W/m² | - |
| 1787777053 | 36.11° C | 42% | 1013.5 hPa | 0 mm | - | 330 W/m² | - |
| 1787776752 | 35.56° C | 42% | 1013.5 hPa | 0 mm | - | 338 W/m² | - |
| 1787776451 | 34.44° C | 42% | 1013.5 hPa | 0 mm | - | 340 W/m² | - |
| 1787776148 | 34.44° C | 42% | 1013.9 hPa | 0 mm | - | 340 W/m² | - |
| 1787775843 | 36.11° C | 42% | 1013.9 hPa | 0 mm | - | 346 W/m² | - |
| 1787775538 | 35.56° C | 42% | 1013.9 hPa | 0 mm | - | 345 W/m² | - |
| 1787775237 | 35.56° C | 42% | 1013.9 hPa | 0 mm | - | 351 W/m² | - |
| 1787774931 | 35° C | 42% | 1013.9 hPa | 0 mm | - | 352 W/m² | - |
| 1787774631 | 36.11° C | 42% | 1013.5 hPa | 0 mm | - | 355 W/m² | - |
| 1787774330 | 35.56° C | 42% | 1013.9 hPa | 0 mm | - | 357 W/m² | - |
| 1787774025 | 35.56° C | 42% | 1013.9 hPa | 0 mm | - | 357 W/m² | - |
| 1787773723 | 35.56° C | 42% | 1013.9 hPa | 0 mm | - | 361 W/m² | - |
* Rain latest hour (hover to see other rain measurements)
** Current wind speed in m/s (hover to see current wind gust speed)